Location: Newark
(52.9300°N, 3.3400°W)
Time: 16:14:47
(UTC+00:00)

X-37B - Visible Passes

Search period start: 23 June 2021 00:00
Search period end: 03 July 2021 00:00
Orbit: 386 x 389 km, 45.0° (Epoch: 10 June)

Date Brightness Start Highest point End Pass type
(mag) Time Alt. Az. Time Alt. Az. Time Alt. Az.
23 Jun 2.4 22:07:56 10° SSW 22:09:37 14° SSE 22:10:09 13° SSE visible
24 Jun 2.0 22:45:04 10° SW 22:47:24 19° S 22:47:29 19° S visible
25 Jun 2.3 21:47:07 10° SSW 21:49:16 17° SSE 21:51:24 10° SE visible
25 Jun 2.4 23:22:54 10° SW 23:24:10 16° SSW 23:24:10 16° SSW visible
26 Jun 2.1 22:24:40 10° SW 22:27:05 20° S 22:28:17 16° SSE visible
27 Jun 2.4 23:02:45 10° SW 23:04:33 17° SSW 23:04:33 17° SSW visible
28 Jun 2.2 22:04:25 10° SW 22:06:46 19° S 22:08:30 13° SSE visible
29 Jun 2.6 22:42:49 10° SW 22:44:33 14° SSW 22:44:39 14° SSW visible
30 Jun 2.4 21:44:17 10° SW 21:46:26 17° SSW 21:48:33 10° SSE visible
01 Jul 3.0 22:23:35 10° SW 22:24:09 10° SSW 22:24:42 10° SSW visible
